Location: Newark
(55.7083°N, 13.1992°E)
Time: 12:35:05
(UTC+00:00)

Envisat - Visible Passes

Search period start: 17 January 2020 00:00
Search period end: 27 January 2020 00:00
Orbit: 764 x 766 km, 98.1° (Epoch: 17 January)

Date Brightness Start Highest point End Pass type
(mag) Time Alt. Az. Time Alt. Az. Time Alt. Az.
17 Jan 6.0 04:29:16 10° NE 04:32:21 16° E 04:35:24 10° ESE visible
17 Jan 3.2 06:07:06 10° NNE 06:12:13 80° ESE 06:17:19 10° SSW visible
17 Jan 3.4 15:50:36 10° SE 15:55:23 42° ENE 16:00:10 10° N visible
17 Jan 4.4 17:29:44 10° SSW 17:34:29 39° W 17:39:16 10° NNW visible
18 Jan 4.3 05:30:26 10° NNE 05:35:18 44° E 05:40:09 10° S visible
18 Jan 3.3 16:52:27 10° S 16:57:32 72° WSW 17:02:38 10° NNW visible
18 Jan 6.1 18:34:49 10° WSW 18:37:30 14° W 18:40:11 10° NW visible
19 Jan 5.4 04:54:04 10° NE 04:58:11 24° E 05:02:17 10° SE visible
19 Jan 3.0 06:32:38 10° NNE 06:37:42 68° WNW 06:42:45 10° SSW visible
19 Jan 3.0 16:15:44 10° SSE 16:20:45 64° ENE 16:25:49 10° N visible
19 Jan 5.2 17:55:59 10° SSW 18:00:12 26° W 18:04:28 10° NW visible
20 Jan 6.2 04:18:31 10° NE 04:20:53 13° E 04:23:14 10° ESE visible
20 Jan 3.4 05:55:49 10° NNE 06:00:55 67° ESE 06:05:59 10° S visible
20 Jan 4.1 17:18:13 10° S 17:23:07 47° W 17:28:03 10° NNW visible
21 Jan 4.7 05:19:13 10° NNE 05:23:56 36° E 05:28:37 10° SSE visible
21 Jan 3.1 16:41:08 10° SSE 16:46:13 86° WSW 16:51:21 10° NNW visible
21 Jan 5.9 18:22:45 10° SW 18:26:02 17° W 18:29:20 10° NW visible
22 Jan 5.7 04:43:00 10° NE 04:46:46 20° E 04:50:30 10° SE visible
22 Jan 3.0 06:21:18 10° NNE 06:26:25 81° WNW 06:31:31 10° SSW visible
22 Jan 3.1 16:04:34 10° SE 16:09:30 53° ENE 16:14:28 10° N visible
22 Jan 4.9 17:44:19 10° SSW 17:48:48 31° W 17:53:19 10° NNW visible
23 Jan 6.4 04:08:14 10° ENE 04:09:23 11° E 04:10:31 10° E visible
23 Jan 3.8 05:44:33 10° NNE 05:49:35 56° E 05:54:35 10° S visible
23 Jan 3.7 17:06:47 10° S 17:11:46 56° W 17:16:48 10° NNW visible
23 Jan 6.4 18:50:47 10° W 18:51:57 11° W 18:53:09 10° WNW visible
24 Jan 5.0 05:08:02 10° NNE 05:12:33 31° E 05:17:01 10° SSE visible
24 Jan 3.0 16:29:51 10° SSE 16:34:55 81° ENE 16:40:03 10° NNW visible
24 Jan 5.6 18:10:51 10° SW 18:14:36 20° W 18:18:21 10° NW visible
25 Jan 6.0 04:32:01 10° NE 04:35:19 17° E 04:38:35 10° SE visible
25 Jan 3.1 06:10:00 10° NNE 06:15:08 85° ESE 06:20:14 10° SSW visible
25 Jan 4.6 17:32:44 10° SSW 17:37:25 37° W 17:42:08 10° NNW visible
26 Jan 4.2 05:33:19 10° NNE 05:38:14 47° E 05:43:08 10° S visible
26 Jan 3.4 16:55:23 10° S 17:00:26 68° WSW 17:05:33 10° NNW visible
26 Jan 6.2 18:38:05 10° WSW 18:40:28 13° W 18:42:51 10° NW visible
